Flag for Canada Weather past 2 weeks in Coral Harbour, Nunavut Territory, Canada

Now
-24 °F

Overcast.


Feels Like: -42 °F
Forecast: -20 / -16 °F
Wind: 7 mph from East

Location: Coral Harbour

Current Time: Jan 30, 2015 at 3:17:21 PM

Latest Report: Jan 30, 2015 at 2:00 PM


Visibility: 8 mi

Pressure: 29.73 "Hg

Humidity: 68%

Dew point: -31 °F

Location of Coral HarbourLocation

Historic Weather in Coral Harbour — Graph

°F

Coral Harbour temperature yesterday

Maximum temperature yesterday: -13 °F (at 12:00 AM)
Minimum temperature yesterday: -26 °F (at 10:00 PM)
Average temperature yesterday: -17 °F

Past Weeks' High & Low Weather Summary

 TemperatureHumidityPressure
High-4 °F (Jan 27, 11:00 PM)77% (Jan 27, 5:00 AM)30.14 "Hg (Jan 27, 5:00 AM)
Low-42 °F (Jan 17, 8:00 AM)58% (Jan 16, 2:00 AM)29.55 "Hg (Jan 28, 12:00 AM)
Average-27 °F64%29.84 "Hg
* Reported Jan 15 2:00 PM — Jan 30 2:00 PM, Coral Harbour, Weather by CustomWeather, © 2014

Note: Actual official high and low records may vary slightly from our data, if they occured in-between our weather recording intervals... More about our weather records

Advertising

Coral Harbour weather history for previous 24 hours

 ConditionsComfort  
Time TempWeatherWind HumidityBarometerVisibility
2:00 PM
Jan 30
-24 °FOvercast.7 mph68%29.73 "Hg8 mi
1:00 PM-24 °FOvercast.2 mph68%29.72 "Hg10 mi
12:00 PM-24 °FPartly sunny.6 mph68%29.72 "Hg12 mi
11:00 AM-26 °FPartly sunny.6 mph67%29.71 "Hg15 mi
10:00 AM-27 °FPassing clouds.7 mph67%29.70 "Hg15 mi
9:00 AM-24 °FPassing clouds.5 mph68%29.69 "Hg15 mi
8:00 AM-22 °FPassing clouds.7 mph68%29.68 "Hg15 mi
7:00 AM-24 °FPassing clouds.7 mph68%29.68 "Hg15 mi
6:00 AM-27 °FPassing clouds.6 mph67%29.68 "Hg15 mi
5:00 AM-27 °FPassing clouds.3 mph61%29.68 "Hg15 mi
4:58 AM-26 °FPassing clouds.5 mph67%29.67 "Hg15 mi
2:00 AM-27 °FPassing clouds.6 mph67%29.67 "Hg15 mi
1:00 AM-27 °FPassing clouds.8 mph61%29.67 "Hg15 mi
12:00 AM-27 °FPassing clouds.12 mph67%29.67 "Hg15 mi
11:00 PM
Jan 29
-24 °FPassing clouds.10 mph68%29.67 "Hg15 mi
10:00 PM-26 °FPassing clouds.16 mph67%29.67 "Hg15 mi
9:00 PM-24 °FPassing clouds.13 mph68%29.67 "Hg15 mi
8:00 PM-22 °FPassing clouds.14 mph68%29.67 "Hg15 mi
7:00 PM-20 °FOvercast.16 mph68%29.67 "Hg15 mi
6:00 PM-17 °FOvercast.12 mph69%29.66 "Hg15 mi
5:00 PM-15 °FOvercast.14 mph69%29.65 "Hg15 mi
4:00 PM-15 °FOvercast.15 mph69%29.64 "Hg15 mi
3:00 PM-17 °FOvercast.14 mph69%29.64 "Hg15 mi
Weather by CustomWeather, © 2014

See weather overviewHow to use our weather pages